EW4806 Weather Reports


Display with metric or nautical units.
time (UTC)temp
F
wind
direction
speed
MPH
gust
MPH
rain 1hr
in
rain 24hr
in
rain mn
in
humidity
%
barometer
mb
20260506232024 83 278 1.0 11.0 0.00 0.00 0.00 24 1016.3
20260506231229 83 274 1.0 5.0 0.00 0.00 0.00 24 1016.4
20260506225715 82 197 0.0 7.0 0.00 0.00 0.00 25 1016.6
20260506223523 82 278 0.0 3.0 0.00 0.00 0.00 24 1016.8
20260506222020 82 276 0.0 3.0 0.00 0.00 0.00 29 1017.0
20260506220519 80 270 0.0 9.0 0.00 0.00 0.00 29 1017.3
20260506215016 80 354 0.0 1.0 0.00 0.00 0.00 32 1017.5
20260506213515 79 335 0.0 7.0 0.00 0.00 0.00 31 1017.6
20260506212701 78 285 0.0 1.0 0.00 0.00 0.00 30 1017.8
20260506210513 78 326 0.0 4.0 0.00 0.00 0.00 31 1018.0
20260506205013 77 258 0.0 4.0 0.00 0.00 0.00 27 1018.1
20260506203510 76 130 0.0 2.0 0.00 0.00 0.00 31 1018.4
20260506202010 75 249 0.0 2.0 0.00 0.00 0.00 29 1018.5
20260506200508 74 314 0.0 1.0 0.00 0.00 0.00 37 1018.7
20260506195006 73 22 0.0 3.0 0.00 0.00 0.00 39 1019.1
20260506193504 72 328 0.0 4.0 0.00 0.00 0.00 42 1019.2
20260506192004 72 285 0.0 2.0 0.00 0.00 0.00 45 1019.4
20260506190504 71 280 0.0 3.0 0.00 0.00 0.00 48 1019.6
20260506185004 70 283 0.0 4.0 0.00 0.00 0.00 49 1019.7
20260506183504 70 281 0.0 2.0 0.00 0.00 0.00 52 1019.8
20260506182004 69 277 0.0 2.0 0.00 0.00 0.00 53 1019.9
20260506180504 68 354 0.0 0.0 0.00 0.00 0.00 55 1020.0
20260506175004 66 237 0.0 1.0 0.00 0.00 0.00 59 1020.2
20260506173504 65 276 0.0 3.0 0.00 0.00 0.00 61 1020.3
20260506172002 64 223 0.0 3.0 0.00 0.00 0.00 62 1020.4
20260506170502 64 316 0.0 7.0 0.00 0.00 0.00 62 1020.3
20260506165001 62 284 0.0 1.0 0.00 0.00 0.00 65 1020.4
20260506163500 61 260 0.0 1.0 0.00 0.00 0.00 67 1020.3
20260506162000 61 320 0.0 1.0 0.00 0.00 0.00 69 1020.3
20260506160458 60 284 0.0 1.0 0.00 0.00 0.00 71 1020.4
20260506154956 59 256 0.0 0.0 0.00 0.00 0.00 72 1020.5
20260506153454 58 285 0.0 1.0 0.00 0.00 0.00 73 1020.5
20260506151951 57 231 0.0 0.0 0.00 0.00 0.00 75 1020.6
20260506150449 56 231 0.0 0.0 0.00 0.00 0.00 75 1020.8
20260506144948 56 256 0.0 0.0 0.00 0.00 0.00 76 1020.7
20260506144151 55 256 0.0 0.0 0.00 0.00 0.00 79 1020.6
20260506141943 52 256 0.0 0.0 0.00 0.00 0.00 83 1020.3
20260506140444 51 256 0.0 0.0 0.00 0.00 0.00 84 1020.1
20260506135651 51 139 0.0 0.0 0.00 0.00 0.00 85 1019.6
20260506133445 50 139 0.0 0.0 0.00 0.00 0.00 85 1019.6
20260506131941 50 139 0.0 0.0 0.00 0.00 0.00 84 1019.4
20260506130439 50 139 0.0 0.0 0.00 0.00 0.00 84 1019.2
20260506125632 51 139 0.0 0.0 0.00 0.00 0.00 84 1019.0
20260506123434 51 139 0.0 0.0 0.00 0.00 0.00 84 1018.9
20260506121932 51 139 0.0 0.0 0.00 0.00 0.00 83 1018.8
20260506120430 51 139 0.0 0.0 0.00 0.00 0.00 83 1018.7
20260506114927 52 139 0.0 0.0 0.00 0.00 0.00 83 1018.6
20260506113427 52 139 0.0 1.0 0.00 0.00 0.00 83 1018.6
20260506112621 52 139 0.0 1.0 0.00 0.00 0.00 82 1018.4
20260506110426 53 145 0.0 0.0 0.00 0.00 0.00 81 1018.2
20260506104923 53 145 0.0 1.0 0.00 0.00 0.00 81 1018.0
20260506104823 53 145 0.0 1.0 0.00 0.00 0.00 81 1017.9
20260506101920 54 146 0.0 1.0 0.00 0.00 0.00 81 1017.8
20260506100419 54 146 0.0 1.0 0.00 0.00 0.00 80 1017.7
20260506094917 55 145 0.0 1.0 0.00 0.00 0.00 80 1017.6
20260506093418 55 157 0.0 1.0 0.00 0.00 0.00 80 1017.3
20260506091913 55 157 0.0 1.0 0.00 0.00 0.00 79 1017.3
20260506090413 56 157 0.0 1.0 0.00 0.00 0.00 78 1017.3
20260506084914 56 157 0.0 1.0 0.00 0.00 0.00 77 1017.3
20260506083413 57 158 0.0 0.0 0.00 0.00 0.00 76 1017.2
20260506081913 57 158 0.0 0.0 0.00 0.00 0.00 76 1017.2
20260506081105 58 158 0.0 0.0 0.00 0.00 0.00 74 1017.1
20260506073406 59 158 0.0 0.0 0.00 0.00 0.00 72 1016.7
20260506071907 59 158 0.0 0.0 0.00 0.00 0.00 70 1016.6
20260506070404 60 158 0.0 0.0 0.00 0.00 0.00 69 1016.4
20260506061903 62 158 0.0 0.0 0.00 0.00 0.00 64 1016.1
20260506060401 63 158 0.0 0.0 0.00 0.00 0.00 63 1015.9
20260506050354 65 174 0.0 0.0 0.00 0.00 0.00 56 1015.2
20260506044854 66 174 0.0 0.0 0.00 0.00 0.00 54 1015.0
20260506043353 67 174 0.0 0.0 0.00 0.00 0.00 50 1014.7
20260506041853 68 174 0.0 0.0 0.00 0.00 0.00 48 1014.5
20260506040351 70 282 0.0 0.0 0.00 0.00 0.00 45 1014.3
20260506034851 71 283 0.0 0.0 0.00 0.00 0.00 41 1014.0
20260506034048 73 285 0.0 0.0 0.00 0.00 0.00 39 1013.6
20260506032550 74 285 0.0 0.0 0.00 0.00 0.00 37 1013.2
20260506030350 75 291 0.0 0.0 0.00 0.00 0.00 34 1013.1
20260506024849 76 288 0.0 0.0 0.00 0.00 0.00 32 1012.8
20260506023349 77 342 0.0 3.0 0.00 0.00 0.00 30 1012.7
20260506022559 78 342 0.0 4.0 0.00 0.00 0.00 29 1012.5
20260506020349 78 354 1.0 5.0 0.00 0.00 0.00 28 1012.3
20260506014849 79 278 1.0 4.0 0.00 0.00 0.00 27 1012.2
20260506013350 80 304 1.0 8.0 0.00 0.00 0.00 26 1012.1
20260506011849 80 268 0.0 4.0 0.00 0.00 0.00 26 1011.9
20260506010348 80 326 0.0 4.0 0.00 0.00 0.00 25 1012.0
20260506004849 80 276 1.0 4.0 0.00 0.00 0.00 25 1012.0
20260506003348 80 340 1.0 5.0 0.00 0.00 0.00 24 1011.8
20260506001843 80 316 1.0 11.0 0.00 0.00 0.00 24 1011.9
20260506000344 79 335 1.0 9.0 0.00 0.00 0.00 24 1011.9
20260505234843 79 359 1.0 6.0 0.00 0.00 0.00 25 1011.9
20260505233342 79 354 1.0 9.0 0.00 0.00 0.00 26 1012.1